Location: ?????
(44.4284°N, 135.2222°E)
Time: 07:14:04
(UTC+00:00)

Helios 1A Rocket - Pass Details

Date: 19 May 2025
Orbit: 466 x 480 km, 98.3° (Epoch: 24 June)

Event Time Altitude Azimuth Distance (km) Brightness Sun altitude
Rises 17:23:48 0° 117° (ESE) 2,504 6.3 -17.3°
Reaches altitude 10° 17:26:56 10° 85° (E) 1,638 5.8 -17.0°
Drops below altitude 10° 17:29:42 10° 39° (NE) 1,647 6.6 -16.7°
Enters shadow 18:32:41 -54° 167° (SSE) 10,816 9.3 -8.8°
Exits shadow 18:51:45 -12° 172° (S) 4,113 7.0 -6.1°
Maximum altitude 19:01:02 50° 259° (W) 611 2.7 -4.8°
Sets 19:06:36 0° 342° (NNW) 2,535 6.4 -3.9°
